Weather History for 94767 - September, 2013

Change the Weather History Date:

Monday, September 2, 2013

  Actual Average Record
Temperature  
Mean Temperature 64 °F -  
Max Temperature 73 °F 69 °F - ()
Min Temperature 54 °F 50 °F - ()
Degree Days  
Heating Degree Days 2    
Growing Degree Days 14 (Base 50)    
Moisture  
Dew Point 51 °F    
Average Humidity 63    
Maximum Humidity 88    
Minimum Humidity 24    
Precipitation  
Precipitation 0.00 in 0.08 in - ()
Sea Level Pressure  
Sea Level Pressure 30.41 in    
Wind  
Wind Speed 7 mph ()    
Max Wind Speed 14 mph    
Max Gust Speed -    
Visibility 15.7 miles    
Events      
T = Trace of Precipitation, MM = Missing Value Source: Averaged Metar Reports

Daily Weather History Graph

Daily Weather History Graph

Search for Another Location

Airport or City:

Trip Planner

Search our weather history database for the weather conditions in past years. The results will help you decide how hot, cold, wet, or windy it might be!

Date:

Astronomy

Sep. 02, 2013 Rise Set
Actual Time 6:12 AM AEST 5:37 PM AEST
Civil Twilight 5:47 AM AEST 6:02 PM AEST
Nautical Twilight 5:18 AM AEST 6:31 PM AEST
Astronomical Twilight 4:49 AM AEST 7:00 PM AEST
Moon 3:47 AM AEST (9/2) 2:41 PM AEST (9/2)
Length of Visible Light 12h 15m
Length of Day
11h 25m
Waning Crescent, 11% of the Moon is Illuminated
Sep 2
Waning Crescent
Sep 5
New
Sep 13
First Quarter
Sep 19
Full
Sep 27
Last Quarter

Hourly Weather History & Observations

Time (AEST) Temp. Dew Point Humidity Pressure Visibility Wind Dir Wind Speed Gust Speed Precip Events Conditions
12:00 AM 60 °F 55 °F 77% 30.39 in 16 mi NNW 5.8 mph - -   Partly Cloudy
12:00 AM 60.8 °F 55.4 °F 82% 30.39 in - NNW 5.8 mph - N/A   Clear
12:30 AM 59.0 °F 53.6 °F 82% 30.36 in - North 5.8 mph - N/A   Clear
1:00 AM 59 °F 53 °F 75% 30.38 in - North 5.8 mph - -  
1:00 AM 59.0 °F 53.6 °F 82% 30.36 in - North 5.8 mph - N/A   Clear
1:30 AM 59.0 °F 53.6 °F 82% 30.36 in - North 6.9 mph - N/A   Clear
2:00 AM 57 °F 53 °F 81% 30.38 in - NNW 5.8 mph - -  
2:00 AM 57.2 °F 53.6 °F 88% 30.36 in - NNW 5.8 mph - N/A   Clear
2:30 AM 57.2 °F 51.8 °F 82% 30.36 in - North 5.8 mph - N/A   Clear
3:00 AM 56 °F 52 °F 81% 30.38 in 16 mi NW 6.9 mph - -   Haze
3:00 AM 55.4 °F 51.8 °F 88% 30.36 in - NW 6.9 mph - N/A   Clear
3:30 AM 55.4 °F 51.8 °F 88% 30.36 in - NNW 5.8 mph - N/A   Clear
4:00 AM 55 °F 51 °F 81% 30.39 in - North 6.9 mph - -  
4:00 AM 55.4 °F 50.0 °F 82% 30.39 in - North 6.9 mph - N/A   Clear
4:30 AM 55.4 °F 50.0 °F 82% 30.39 in - North 8.1 mph - N/A   Clear
5:00 AM 55.4 °F 50.0 °F 82% 30.39 in - North 9.2 mph - N/A   Clear
5:30 AM 55.4 °F 50.0 °F 82% 30.39 in - North 9.2 mph - N/A   Clear
6:00 AM 55.4 °F 50.0 °F 82% 30.39 in - NNW 8.1 mph - N/A   Clear
6:30 AM 57.2 °F 50.0 °F 77% 30.39 in - NNW 6.9 mph - N/A   Clear
7:00 AM 57.2 °F 50.0 °F 77% 30.42 in - NW 8.1 mph - N/A   Clear
7:30 AM 59.0 °F 50.0 °F 72% 30.42 in - NW 8.1 mph - N/A   Clear
8:00 AM 59.0 °F 48.2 °F 67% 30.42 in - NW 8.1 mph - N/A   Clear
8:30 AM 62.6 °F 50.0 °F 63% 30.45 in - WNW 8.1 mph - N/A   Clear
9:00 AM 63 °F 49 °F 51% 30.45 in 9 mi NW 8.1 mph - -   Haze
9:00 AM 62.6 °F 50.0 °F 63% 30.45 in - NW 8.1 mph - N/A   Clear
9:30 AM 66.2 °F 50.0 °F 56% 30.45 in - WNW 8.1 mph - N/A   Clear
10:00 AM 68 °F 50 °F 43% 30.45 in - WNW 8.1 mph - -  
10:00 AM 68.0 °F 50.0 °F 52% 30.45 in - WNW 8.1 mph - N/A   Clear
10:30 AM 68.0 °F 51.8 °F 56% 30.45 in - NW 9.2 mph - N/A   Clear
11:00 AM 69.8 °F 48.2 °F 46% 30.42 in - North 9.2 mph - N/A   Clear
11:30 AM 71.6 °F 50.0 °F 46% 30.42 in - NNE 6.9 mph - N/A   Clear
12:00 PM 72 °F 48 °F 31% 30.42 in 12 mi East 3.5 mph - -   Haze
12:30 PM 71.6 °F 48.2 °F 43% 30.39 in - South 5.8 mph - N/A   Clear
1:00 PM 69.8 °F 53.6 °F 56% 30.39 in - SSE 9.2 mph - N/A   Clear
1:30 PM 73.4 °F 50.0 °F 44% 30.39 in - ENE 13.8 mph - N/A   Clear
2:00 PM 72 °F 46 °F 29% 30.39 in - NE 13.8 mph - -  
2:00 PM 71.6 °F 46.4 °F 41% 30.39 in - NE 13.8 mph - N/A   Clear
2:30 PM 73.4 °F 42.8 °F 33% 30.39 in - ENE 12.7 mph - N/A   Clear
3:00 PM 72 °F 43 °F 24% 30.39 in 19 mi NNE 11.5 mph - -   Partly Cloudy
3:00 PM 71.6 °F 42.8 °F 35% 30.36 in - NNE 11.5 mph - N/A   Clear
3:30 PM 73.4 °F 42.8 °F 33% 30.39 in - NNE 12.7 mph - N/A   Clear
4:00 PM 69.8 °F 42.8 °F 38% 30.39 in - NE 10.4 mph - N/A   Clear
4:30 PM 69.8 °F 42.8 °F 38% 30.39 in - NE 10.4 mph - N/A   Clear
5:00 PM 68.0 °F 46.4 °F 46% 30.39 in - NE 10.4 mph - N/A   Clear
5:30 PM 68.0 °F 48.2 °F 49% 30.39 in - NE 8.1 mph - N/A   Clear
6:00 PM 66 °F 49 °F 43% 30.43 in 19 mi NE 9.2 mph - -   Partly Cloudy
6:00 PM 66.2 °F 48.2 °F 52% 30.42 in - NE 9.2 mph - N/A   Clear
6:30 PM 66.2 °F 53.6 °F 64% 30.42 in - NE 8.1 mph - N/A   Clear
7:00 PM 65 °F 53 °F 55% 30.44 in - NE 9.2 mph - -  
7:00 PM 64.4 °F 53.6 °F 68% 30.42 in - NE 9.2 mph - N/A   Clear
7:30 PM 64.4 °F 51.8 °F 64% 30.42 in - NE 8.1 mph - N/A   Clear
8:00 PM 64 °F 53 °F 58% 30.46 in - NNE 4.6 mph - -  
8:00 PM 64.4 °F 53.6 °F 68% 30.45 in - NNE 4.6 mph - N/A   Clear
8:30 PM 64.4 °F 53.6 °F 68% 30.45 in - NE 6.9 mph - N/A   Clear
9:00 PM 63 °F 53 °F 63% 30.47 in 19 mi NE 5.8 mph - -   Partly Cloudy
9:00 PM 62.6 °F 53.6 °F 72% 30.45 in - NE 5.8 mph - N/A   Clear
9:30 PM 64.4 °F 53.6 °F 68% 30.45 in - North 1.2 mph - N/A   Clear
10:00 PM 64 °F 54 °F 63% 30.48 in - Calm Calm - -  
10:00 PM 64.4 °F 53.6 °F 68% 30.48 in - Calm Calm - N/A   Clear
10:30 PM 62.6 °F 55.4 °F 77% 30.48 in - North 2.3 mph - N/A   Clear
11:00 PM 60 °F 54 °F 74% 30.48 in - WSW 5.8 mph - -  
11:00 PM 60.8 °F 53.6 °F 77% 30.48 in - WSW 5.8 mph - N/A   Clear
11:30 PM 59.0 °F 53.6 °F 82% 30.48 in - WSW 5.8 mph - N/A   Clear